Weather History for Riverside March, CA

Change the Weather History Date:

Sunday, October 6, 2013

  Actual Average Record
Temperature  
Mean Temperature 68 °F -  
Max Temperature 89 °F 82 °F 100 °F (1996)
Min Temperature 48 °F 53 °F 39 °F (2007)
Cooling Degree Days 3    
Growing Degree Days 18 (Base 50)    
Moisture  
Dew Point 15 °F    
Average Humidity 14    
Maximum Humidity 26    
Minimum Humidity 5    
Precipitation  
Precipitation 0.00 in - - ()
Sea Level Pressure  
Sea Level Pressure 30.04 in    
Wind  
Wind Speed 5 mph (NNW)    
Max Wind Speed 9 mph    
Max Gust Speed -    
Visibility 10 miles    
Events      
Averages and records for this station are not official NWS values.
T = Trace of Precipitation, MM = Missing Value Source: NWS Daily Summary

Daily Weather History Graph

Daily Weather History Graph

Search for Another Location

Airport:

Trip Planner

Search our weather history database for the weather conditions in past years. The results will help you decide how hot, cold, wet, or windy it might be!

Date:

Astronomy

Oct. 06, 2013 Rise Set
Actual Time 6:47 AM PDT 6:26 PM PDT
Civil Twilight 6:22 AM PDT 6:51 PM PDT
Nautical Twilight 5:53 AM PDT 7:19 PM PDT
Astronomical Twilight 5:24 AM PDT 7:48 PM PDT
Moon 8:30 AM PDT (10/6) 7:36 PM PDT (10/6)
Length of Visible Light 12h 28m
Length of Day
11h 38m
Waxing Crescent, 4% of the Moon is Illuminated
Oct 6
Waxing Crescent
Oct 11
First Quarter
Oct 18
Full
Oct 26
Last Quarter
Nov 3
New

Hourly Weather History & Observations

Time (PDT) Temp. Dew Point Humidity Pressure Visibility Wind Dir Wind Speed Gust Speed Precip Events Conditions
12:58 AM 63.9 °F 15.6 °F 15% 30.09 in 10.0 mi ENE 8.1 mph - N/A   Clear
1:58 AM 61.2 °F 16.2 °F 17% 30.09 in 10.0 mi Variable 1.2 mph - N/A   Clear
2:58 AM 63.3 °F 12.6 °F 14% 30.08 in 10.0 mi North 9.2 mph - N/A   Clear
3:58 AM 64.9 °F 12.4 °F 13% 30.08 in 10.0 mi North 4.6 mph - N/A   Clear
4:58 AM 53.2 °F 14.4 °F 21% 30.09 in 10.0 mi NW 5.8 mph - N/A   Clear
5:58 AM 50.7 °F 15.1 °F 24% 30.10 in 10.0 mi Calm Calm - N/A   Clear
6:58 AM 48.0 °F 14.7 °F 26% 30.10 in 10.0 mi NE 3.5 mph - N/A   Clear
7:58 AM 59.7 °F 17.1 °F 19% 30.11 in 10.0 mi West 3.5 mph - N/A   Clear
8:58 AM 70.5 °F 15.8 °F 12% 30.11 in 10.0 mi ENE 4.6 mph - N/A   Clear
9:58 AM 73.9 °F 22.3 °F 14% 30.10 in 10.0 mi Variable 3.5 mph - N/A   Clear
10:58 AM 81.3 °F 12.0 °F 7% 30.09 in 10.0 mi Variable 4.6 mph - N/A   Clear
11:58 AM 83.8 °F 10.4 °F 6% 30.07 in 10.0 mi Variable 3.5 mph - N/A   Clear
12:58 PM 86.0 °F 12.7 °F 6% 30.05 in 10.0 mi NW 8.1 mph - N/A   Clear
1:58 PM 87.8 °F 13.3 °F 6% 30.01 in 10.0 mi NNW 3.5 mph - N/A   Clear
2:58 PM 87.8 °F 12.6 °F 6% 29.99 in 10.0 mi Variable 6.9 mph - N/A   Clear
3:58 PM 88.7 °F 10.0 °F 5% 29.98 in 10.0 mi North 8.1 mph - N/A   Clear
4:58 PM 88.0 °F 9.5 °F 5% 29.97 in 10.0 mi WNW 6.9 mph - N/A   Clear
5:58 PM 85.3 °F 14.9 °F 7% 29.97 in 10.0 mi WNW 8.1 mph - N/A   Clear
6:58 PM 74.7 °F 17.2 °F 11% 29.98 in 10.0 mi WNW 8.1 mph - N/A   Clear
7:58 PM 77.9 °F 15.1 °F 9% 29.99 in 10.0 mi NW 6.9 mph - N/A   Clear
8:58 PM 66.0 °F 21.7 °F 19% 30.00 in 10.0 mi Calm Calm - N/A   Clear
9:58 PM 61.5 °F 21.6 °F 22% 30.01 in 10.0 mi WNW 3.5 mph - N/A   Clear
10:58 PM 57.7 °F 21.6 °F 25% 29.99 in 10.0 mi WNW 4.6 mph - N/A   Clear
11:58 PM 57.6 °F 20.1 °F 23% 29.98 in 10.0 mi Variable 1.2 mph - N/A   Clear